Location: Roland
(31.1349°N, 85.4372°W)
Time: 19:34:36
(UTC+00:00)

deb Explorer IX - Visible Passes

Search period start: 19 April 2021 00:00
Search period end: 29 April 2021 00:00
Orbit: 540 x 1099 km, 38.8° (Epoch: 19 April)

Date Brightness Start Highest point End Pass type
(mag) Time Alt. Az. Time Alt. Az. Time Alt. Az.
21 Apr ? 10:31:31 10° SW 10:35:17 38° SSE 10:39:11 10° ENE visible
22 Apr ? 10:08:30 14° SSW 10:11:39 38° SSE 10:15:30 10° ENE visible
23 Apr ? 09:46:09 24° SSW 09:48:02 38° SSE 09:51:51 10° ENE visible
24 Apr ? 09:23:44 35° S 09:24:25 38° SSE 09:28:13 10° ENE visible
25 Apr ? 09:01:16 37° SE 09:01:16 37° SE 09:04:36 10° ENE visible
26 Apr ? 08:38:45 27° E 08:38:45 27° E 08:41:00 10° ENE visible
26 Apr ? 10:20:01 11° W 10:23:49 46° NNW 10:27:46 10° ENE visible
27 Apr ? 08:16:12 18° E 08:16:12 18° E 08:17:25 10° ENE visible
27 Apr ? 09:57:26 18° W 10:00:12 46° NNW 10:04:08 10° ENE visible
28 Apr ? 07:53:35 12° E 07:53:35 12° E 07:53:51 10° ENE visible
28 Apr ? 09:34:49 28° WNW 09:36:35 46° NNW 09:40:30 10° ENE visible
